Location: Cuvergnon
(49.1743°N, 2.9894°E)
Time: 20:04:25
(UTC+00:00)

Daily predictions for brighter satellites

Satellite Brightness Start Highest point End
(mag) Time Altitude Azimuth Time Altitude Azimuth Time Altitude Azimuth
SPOT 3 Rocket 4.4 18:25:24 10° SE 18:29:54 32° ENE 18:34:26 10° N
NOSS 3-4 (A) 4.4 18:23:32 10° NW 18:29:58 43° NNE 18:37:01 10° ESE
NOSS 3-4 (C) 4.4 18:23:38 10° NW 18:30:04 43° NNE 18:37:05 10° ESE
Cosmos 2333 Rocket 2.7 18:25:42 10° NNW 18:31:06 43° NE 18:36:31 10° ESE
Cosmos 1536 Rocket 3.7 18:27:42 10° N 18:31:57 51° ENE 18:36:10 10° SSE
ARGOS 4.3 18:28:49 10° ESE 18:33:10 26° ENE 18:37:32 10° N
Cosmos 1666 4.1 18:32:27 10° SSW 18:36:02 43° WNW 18:39:39 10° N
USA 116 4.2 18:31:47 10° N 18:36:09 71° WNW 18:39:57 10° SSW
YAOGAN 1 3.8 18:35:43 10° S 18:39:53 47° W 18:44:05 10° NNW
NOSS 3-3 (A) 4.2 18:35:24 10° SSW 18:41:02 46° ESE 18:47:17 10° NE
NOSS 3-3 (C) 4.2 18:35:31 10° S 18:41:08 46° ESE 18:47:23 10° NE
Cosmos 1025 Rocket 3.1 18:38:30 10° N 18:42:44 56° ENE 18:46:56 10° SSE
HJ-1C 3.3 18:40:31 10° SSE 18:43:52 71° ENE 18:47:15 10° N
Aureole 1 Rocket 3.6 18:40:22 10° NNW 18:46:16 57° ENE 18:50:42 10° SE
MOS 1 4.3 18:41:56 10° SSE 18:47:35 69° ENE 18:53:16 10° NNW
Cosmos 2237 Rocket 3.3 18:43:52 10° NNW 18:48:45 28° NE 18:53:17 11° ESE
BREEZE-M DEB (TANK) 4.4 18:50:41 10° WSW 18:51:58 14° SW 18:53:13 10° S
Cosmos 1939 Rocket 3.1 18:48:09 10° S 18:52:00 71° WSW 18:55:53 10° NNW
Cosmos 1441 Rocket 4.1 18:48:56 10° SSE 18:52:15 28° E 18:55:33 10° NNE
Cosmos 405 3.8 18:49:23 10° NNW 18:52:50 54° W 18:56:15 10° S
SJ-6B 3.4 18:49:34 10° SE 18:53:29 42° ENE 18:57:23 10° N
BREEZE-M DEB (TANK) 3.4 18:50:47 10° W 18:54:43 74° N 19:02:33 10° E
Cosmos 2151 Rocket 3.5 18:51:32 10° S 18:55:56 77° E 19:00:21 10° NNE
Cosmos 2074 Rocket 4.0 18:50:03 10° N 18:56:21 85° ENE 19:02:35 10° S
CZ-4C R/B 3.9 18:53:16 10° W 18:58:16 33° NNW 19:04:06 10° NE
Cosmos 1544 3.6 18:56:46 10° SSE 19:00:04 36° E 19:03:24 10° NNE
USA 234 4.1 18:53:58 10° ENE 19:00:10 47° N 19:06:22 10° WNW
H-2A R/B 2.4 18:57:35 10° SE 19:02:10 40° ENE 19:06:50 10° N
SAR-Lupe-2 3.5 18:59:14 10° NNE 19:02:48 59° ESE 19:06:20 10° S
FREGAT/IRIS 2.3 19:00:12 10° SSE 19:03:00 87° E 19:05:50 10° NNW
Meteor 1-12 Rocket 4.2 19:02:27 10° S 19:08:07 64° E 19:13:45 10° NNE
Cosmos 2251 Rocket 3.8 19:02:46 10° NNW 19:08:10 76° WSW 19:13:31 10° SSE
Cosmos 1300 Rocket 3.7 19:04:32 10° SSW 19:08:52 78° W 19:13:11 10° N
Cosmos 1707 3.3 19:05:20 10° N 19:09:02 39° ENE 19:12:03 14° SE
ATLAS 2AS CENTAUR R/B 2.9 19:06:21 10° NW 19:14:12 81° NE 19:20:32 14° SE
Lacrosse 4 Rocket 4.1 19:12:14 10° WNW 19:14:54 17° WSW 19:17:33 10° SSW
Cosmos 2333 4.4 19:09:22 10° NNW 19:15:02 75° WSW 19:20:42 10° SSE
Cosmos 2154 Rocket 3.9 19:08:53 10° N 19:15:07 73° E 19:21:18 10° SSE
SL-16 R/B 3.8 19:11:50 10° N 19:16:05 21° NE 19:19:18 14° E
SL-8 R/B 4.1 19:12:04 10° SW 19:16:35 42° SSE 19:19:44 18° E
ADEOS Rocket 3.8 19:12:05 10° NNE 19:18:52 44° E 19:26:05 10° SSE
SJ-11-01 4.3 19:14:32 10° SSE 19:19:18 86° WSW 19:24:06 10° NNW
COSMOS 2428 2.7 19:16:29 10° NNW 19:22:12 90° ENE 19:27:34 12° SSE
Cosmos 1975 4.4 19:19:48 10° SW 19:23:32 39° WNW 19:27:19 10° N
USA 186 2.1 19:24:22 10° S 19:27:41 70° W 19:31:07 10° NNW
Cosmos 1455 Rocket 4.2 19:28:37 23° E 19:28:56 23° E 19:32:25 10° NE
Cosmos 2219 Rocket 2.2 19:25:10 10° NNW 19:30:48 82° WSW 19:35:48 13° SSE
CZ-2C R/B 3.5 19:29:08 21° SE 19:32:20 46° ENE 19:37:31 10° N
Cosmos 1461 2.7 19:30:23 10° SSW 19:34:19 59° SE 19:38:14 10° NE
Resurs 01 Rocket 2.0 19:32:18 25° SE 19:34:29 45° ENE 19:38:44 10° N
Cosmos 1190 Rocket 4.4 19:29:43 10° NNW 19:34:51 46° ENE 19:37:30 26° ESE
Cosmos 389 Rocket 2.7 19:31:38 10° N 19:34:58 45° ENE 19:35:51 36° ESE
SL-8 Rocket 4.3 19:29:45 10° N 19:35:45 47° ENE 19:39:34 21° SE
BREEZE M DEB (TANK) 1.7 19:34:29 10° W 19:36:43 87° N 19:38:44 25° E
Resurs 1-3 3.6 19:34:41 22° SE 19:37:23 60° ENE 19:41:44 10° N
Cosmos 2360 Rocket 4.2 19:35:43 10° NW 19:40:18 26° WSW 19:44:54 10° SSW
Meteor 1-4 Rocket 3.0 19:37:08 10° N 19:40:33 40° ENE 19:41:04 37° E
GP-B 4.5 19:40:03 10° NNW 19:44:13 41° W 19:48:22 10° SSW
ASTEX 1 3.5 19:39:43 10° N 19:44:37 75° W 19:49:29 10° SSW
Okean 1 Rocket 3.2 19:42:31 10° SSW 19:46:50 73° WNW 19:51:13 10° N
Cosmos 2219 3.5 19:44:28 10° S 19:49:51 43° ESE 19:55:15 10° NE
Cosmos 1437 Rocket 3.8 19:46:41 10° N 19:49:50 27° ENE 19:49:50 27° ENE
CZ-2C R/B 3.8 19:48:11 10° NE 19:52:12 25° E 19:52:12 25° E
Cosmos 2227 Rocket 3.2 19:55:31 26° E 19:55:31 26° E 19:59:00 10° NE
COSMOS 2455 4.2 19:48:59 10° NW 19:54:24 36° WSW 19:59:48 10° S
ERBS 3.9 19:57:18 10° NW 20:00:12 25° NNE 20:00:58 23° NE
Cosmos 2056 Rocket 3.9 20:00:16 32° SSE 20:02:09 43° ESE 20:07:15 10° NE
Timation 2 Rocket 4.4 19:56:47 10° SW 20:03:20 66° WNW 20:09:39 10° NNE
Meteor 1-24 Rocket 4.1 20:00:01 10° N 20:05:30 47° ENE 20:07:05 38° ESE
Cosmos 2297 Rocket 2.8 20:06:20 34° E 20:06:20 34° E 20:10:43 10° NE
Meteor 2-17 Rocket 4.3 20:00:04 10° N 20:06:12 84° E 20:09:58 25° SSE
Cosmos 405 Rocket 2.9 20:07:26 50° NE 20:07:26 50° NE 20:10:29 10° NNE
Cosmos 407 Rocket 3.4 20:05:05 10° NNW 20:10:16 89° WSW 20:12:12 39° SSE
Meteor 2-5 Rocket 3.7 20:05:44 10° N 20:11:31 70° ENE 20:13:50 38° SSE
ARGOS 3.7 20:08:34 14° S 20:13:05 57° W 20:18:24 10° NNW
Okean 1-7 Rocket 3.7 20:10:05 10° NNW 20:14:30 74° W 20:16:14 36° S
Cosmos 1624 Rocket 4.0 20:13:24 40° SSE 20:14:52 54° ESE 20:19:57 10° NNE
Cosmos 2333 Rocket 3.4 20:10:07 10° NW 20:15:21 39° WSW 20:19:49 14° S
MetOp-B 4.1 20:15:25 46° SE 20:16:51 64° ENE 20:22:10 10° N
Cosmos 1892 Rocket 3.9 20:16:14 10° NNW 20:20:41 66° W 20:22:18 37° SSW
NOSS 3-4 (A) 4.0 20:14:25 10° NW 20:21:20 66° SW 20:25:09 31° SSE
NOSS 3-4 (C) 4.0 20:14:31 10° NW 20:21:26 67° SW 20:25:13 31° SSE
SPOT 5 4.0 20:23:09 28° NE 20:23:09 28° NE 20:26:59 10° N
SL-24 R/B 4.4 20:22:05 39° S 20:23:39 67° WSW 20:28:24 10° NNW
Cosmos 614 Rocket 4.1 20:18:45 10° NNW 20:23:59 74° WSW 20:25:42 43° S
Cosmos 1626 4.4 20:23:25 10° NNE 20:24:25 15° NNE 20:24:25 15° NNE
Cosmos 1954 Rocket 3.9 20:24:46 10° NNW 20:30:02 71° ENE 20:30:43 63° ESE
Cosmos 2237 Rocket 2.4 20:27:38 10° NNW 20:33:18 67° WSW 20:35:07 43° S
Spot 2 Rocket 3.4 20:34:29 58° S 20:35:30 85° WSW 20:40:36 10° NNW
Meteor 1-22 Rocket 4.4 20:36:05 55° SE 20:37:00 61° E 20:43:02 10° NNE
SL-08 R/B 4.5 20:32:07 10° N 20:38:39 78° E 20:40:24 51° SSE
ERS-1 Rocket 3.3 20:40:20 50° ENE 20:40:20 50° ENE 20:44:58 10° N
Landsat 7 4.2 20:41:53 50° NE 20:41:53 50° NE 20:46:03 10° N
Cosmos 1980 4.2 20:36:05 10° NW 20:41:36 54° WSW 20:43:22 39° SSW
Cosmos 2181 Rocket 4.2 20:35:31 10° SSW 20:41:39 72° W 20:48:00 10° N
H-2A R/B 3.6 20:37:49 12° SSW 20:41:44 30° W 20:46:06 10° NNW
USA 234 3.8 20:39:20 28° ENE 20:42:32 50° NNE 20:48:50 10° WNW
Cosmos 1371 Rocket 4.1 20:39:23 10° SSW 20:44:41 78° WNW 20:50:05 10° NNE
Cosmos 1140 Rocket 3.6 20:40:38 10° NNW 20:45:49 68° WSW 20:46:33 59° SSW
CZ-4C R/B 4.5 20:43:56 10° NW 20:48:47 23° N 20:54:17 10° NE
Cosmos 1674 3.7 20:46:30 10° NNW 20:49:13 44° NW 20:49:13 44° NW
USA 245 4.4 20:55:43 59° S 20:57:02 85° WSW 21:03:08 10° NNW
Nadezhda 3 Rocket 4.2 20:59:21 52° ENE 20:59:21 52° ENE 21:04:44 10° NNE
SL-8 R/B 4.2 20:54:05 10° W 20:57:43 51° WSW 20:57:43 51° WSW
Cosmos 676 Rocket 4.1 20:54:12 10° NNW 20:59:27 65° WSW 20:59:45 63° SW
SL-16 R/B 2.0 20:55:21 10° NNW 21:01:05 85° ENE 21:01:11 84° E
ADEOS Rocket 4.3 20:57:40 10° N 21:04:23 49° WNW 21:11:36 10° SW
ATLAS 2AS CENTAUR R/B 4.3 20:58:12 10° NW 21:04:26 28° WSW 21:07:59 19° SSW
Meteor 2-12 Rocket 4.4 20:59:12 10° N 21:05:08 64° ENE 21:05:08 64° ENE
Cosmos 1544 Rocket 4.3 21:05:15 51° W 21:05:18 51° WNW 21:09:42 10° N
Cosmos 1455 Rocket 4.2 21:05:41 37° WSW 21:06:31 41° WNW 21:10:46 10° N
Resurs 01 Rocket 3.6 21:09:52 20° WSW 21:11:11 23° W 21:14:43 10° NW
Terra 2.9 21:14:13 38° NNE 21:14:13 38° NNE 21:17:25 10° N
RESURS DK-1 4.1 21:12:40 10° NNW 21:14:55 28° N 21:14:55 28° N
Cosmos 1821 Rocket 3.8 21:12:30 10° N 21:18:36 82° NE 21:18:36 82° NE
CZ-2C R/B 3.1 21:27:54 10° N 21:33:20 59° WNW 21:33:43 57° W
Cosmos 2219 4.5 21:28:42 10° WSW 21:34:04 40° NW 21:39:29 10° NNE
Cosmos 2227 Rocket 2.7 21:37:14 52° W 21:37:59 56° NW 21:43:36 10° NNE
SPOT 1/Viking Rocket 4.3 21:40:52 48° WNW 21:40:52 48° WNW 21:45:10 10° NNW
Cosmos 2297 Rocket 3.1 21:48:00 37° W 21:49:34 45° NW 21:55:01 10° NNE
SPOT 5 4.5 22:02:23 31° NW 22:02:23 31° NW 22:05:22 10° NNW
Cosmos 1943 4.1 22:01:52 10° NNW 22:05:52 44° N 22:05:52 44° N
Cosmos 2263 Rocket 4.5 22:14:37 14° NE 22:14:37 14° NE 22:15:27 10° NE
USA 234 3.6 22:26:41 59° WNW 22:26:41 59° WNW 22:31:53 10° WNW
CZ-4C R/B 4.0 22:33:16 10° NW 22:39:19 35° NNE 22:41:02 31° NE
SL-16 R/B 4.4 22:40:50 10° WNW 22:43:03 16° W 22:43:03 16° W
Terra 4.3 22:53:06 16° NW 22:53:06 16° NW 22:54:31 10° NW
Mayak 1.8 22:56:05 10° N 22:56:26 12° N 22:56:26 12° N
USA 267 4.2 23:26:33 10° NE 23:30:27 39° NE 23:30:27 39° NE
Cosmos 2263 Rocket 3.9 23:56:18 30° N 23:56:18 30° N 23:59:32 10° NNE
